Location: Campo Alegre
(10.1673°N, 67.4431°W)
Time: 14:01:59
(UTC+00:00)

Ariane H10 - Pass Details

Date: 14 April 2024
Orbit: 374 x 30243 km, 7.2° (Epoch: 29 May)

Event Time Altitude Azimuth Distance (km) Brightness Sun altitude
Exits shadow 09:21:45 18° 264° (W) 3,563 5.8 -14.8°
Maximum altitude 09:27:53 49° 196° (SSW) 1,014 3.4 -13.3°
Drops below altitude 10° 09:30:57 10° 118° (ESE) 1,664 5.5 -12.6°
Sets 09:32:20 0° 110° (ESE) 2,325 6.6 -12.2°
